Вернуться в каталог

FENGYUN 1C DEB

АктивенPO
NORAD 29790·DEBRIS·🇨🇳 China

Запущен May 10, 1999 с Taiyuan Satellite Launch Center

Loading…

Ближайшие Пролёты (ближайшие 24 часа)

TLE

СвежийSource: Space-Track

Эпоха: Sep 14, 2026, 11:35 UTC

1 29790U 99025CG  26257.48311504  .00000413  00000-0  16420-3 0  9994
2 29790  99.1519 271.7569 0077210  96.9663 264.0309 14.32691552 24745

Отслеживайте FENGYUN 1C DEB в реальном времени с AllMySat

Download on the App Store